Time,TemperatureF,DewpointF,PressureIn,WindDirection,WindDirectionDegrees,WindSpeedMPH,WindSpeedGustMPH,Humidity,HourlyPrecipIn,Conditions,Clouds,dailyrainin,SoftwareType,DateUTC
2013-12-17 00:01:00,-3.1,-6.9,30.02,North,11,4.0,9.0,83,0.00,,,0.00,meteohub,2013-12-17 05:01:00,
2013-12-17 00:02:00,-3.1,-6.9,30.02,WNW,282,3.0,9.0,83,0.00,,,0.00,meteohub,2013-12-17 05:02:00,
2013-12-17 00:03:00,-3.1,-6.9,30.02,NE,35,6.0,9.0,83,0.00,,,0.00,meteohub,2013-12-17 05:03:00,
2013-12-17 00:04:00,-3.1,-6.9,30.02,West,270,0.0,9.0,83,0.00,,,0.00,meteohub,2013-12-17 05:04:00,
2013-12-17 00:06:00,-3.1,-6.9,30.02,NNE,31,1.0,11.0,83,0.00,,,0.00,meteohub,2013-12-17 05:06:00,
2013-12-17 00:11:00,-3.3,-7.1,30.02,North,355,6.0,11.0,83,0.00,,,0.00,meteohub,2013-12-17 05:11:00,
2013-12-17 00:16:00,-3.3,-7.1,30.02,East,99,2.0,11.0,83,0.00,,,0.00,meteohub,2013-12-17 05:16:00,
2013-12-17 00:22:00,-3.3,-7.1,30.02,NNE,20,1.0,9.0,83,0.00,,,0.00,meteohub,2013-12-17 05:22:00,
2013-12-17 00:27:00,-3.3,-7.1,30.02,NNE,27,3.0,9.0,83,0.00,,,0.00,meteohub,2013-12-17 05:27:00,
2013-12-17 00:32:00,-3.3,-7.4,30.03,NNW,340,0.0,7.0,82,0.00,,,0.00,meteohub,2013-12-17 05:32:00,
2013-12-17 00:37:00,-3.3,-7.1,30.03,NW,310,1.0,7.0,83,0.00,,,0.00,meteohub,2013-12-17 05:37:00,
2013-12-17 00:42:00,-3.5,-7.6,30.04,NNE,13,1.0,7.0,82,0.00,,,0.00,meteohub,2013-12-17 05:42:00,
2013-12-17 00:47:00,-3.5,-7.2,30.04,NNW,347,1.0,10.0,83,0.00,,,0.00,meteohub,2013-12-17 05:47:00,
2013-12-17 00:52:00,-3.5,-7.6,30.04,NW,319,2.0,10.0,82,0.00,,,0.00,meteohub,2013-12-17 05:52:00,
2013-12-17 00:57:00,-3.5,-7.6,30.04,NNE,33,3.0,10.0,82,0.00,,,0.00,meteohub,2013-12-17 05:57:00,
2013-12-17 01:02:00,-3.5,-7.6,30.04,NNE,32,2.0,9.0,82,0.00,,,0.00,meteohub,2013-12-17 06:02:00,
2013-12-17 01:07:00,-3.6,-7.8,30.04,East,82,1.0,7.0,82,0.00,,,0.00,meteohub,2013-12-17 06:07:00,
2013-12-17 01:12:00,-3.8,-8.0,30.04,West,261,0.0,10.0,82,0.00,,,0.00,meteohub,2013-12-17 06:12:00,
2013-12-17 01:17:00,-3.8,-8.0,30.05,SW,232,6.0,10.0,82,0.00,,,0.00,meteohub,2013-12-17 06:17:00,
2013-12-17 01:22:00,-3.8,-8.0,30.05,WSW,241,4.0,10.0,82,0.00,,,0.00,meteohub,2013-12-17 06:22:00,
2013-12-17 01:27:00,-4.0,-8.1,30.05,NE,56,0.0,9.0,82,0.00,,,0.00,meteohub,2013-12-17 06:27:00,
2013-12-17 01:32:00,-4.2,-8.3,30.06,NE,45,0.0,8.0,82,0.00,,,0.00,meteohub,2013-12-17 06:32:00,
2013-12-17 01:37:00,-4.2,-8.3,30.06,NE,47,2.0,5.0,82,0.00,,,0.00,meteohub,2013-12-17 06:37:00,
2013-12-17 01:42:00,-4.2,-8.0,30.06,NNE,16,3.0,5.0,83,0.00,,,0.00,meteohub,2013-12-17 06:42:00,
2013-12-17 01:47:00,-3.8,-7.6,30.06,NE,34,2.0,7.0,83,0.00,,,0.00,meteohub,2013-12-17 06:47:00,
2013-12-17 01:52:00,-3.6,-7.8,30.06,North,0,4.0,7.0,82,0.00,,,0.00,meteohub,2013-12-17 06:52:00,
2013-12-17 01:57:00,-3.6,-7.8,30.07,NNE,22,2.0,7.0,82,0.00,,,0.00,meteohub,2013-12-17 06:57:00,
2013-12-17 02:02:00,-3.6,-7.8,30.07,North,355,3.0,9.0,82,0.00,,,0.00,meteohub,2013-12-17 07:02:00,
2013-12-17 02:07:00,-3.6,-7.8,30.08,North,5,2.0,9.0,82,0.00,,,0.00,meteohub,2013-12-17 07:07:00,
2013-12-17 02:12:00,-3.8,-8.0,30.08,NNW,343,2.0,7.0,82,0.00,,,0.00,meteohub,2013-12-17 07:12:00,
2013-12-17 02:17:00,-3.8,-8.0,30.08,NNW,333,0.0,7.0,82,0.00,,,0.00,meteohub,2013-12-17 07:17:00,
2013-12-17 02:22:00,-4.2,-8.3,30.08,ENE,71,1.0,5.0,82,0.00,,,0.00,meteohub,2013-12-17 07:22:00,
2013-12-17 02:27:00,-4.4,-8.5,30.08,ESE,108,2.0,5.0,82,0.00,,,0.00,meteohub,2013-12-17 07:27:00,
2013-12-17 02:32:00,-4.4,-8.5,30.08,SW,230,3.0,3.0,82,0.00,,,0.00,meteohub,2013-12-17 07:32:00,
2013-12-17 02:37:00,-4.4,-8.5,30.09,NW,308,0.0,4.0,82,0.00,,,0.00,meteohub,2013-12-17 07:37:00,
2013-12-17 02:42:00,-4.5,-8.7,30.09,ESE,123,0.0,4.0,82,0.00,,,0.00,meteohub,2013-12-17 07:42:00,
2013-12-17 02:47:00,-4.5,-8.7,30.09,West,275,1.0,5.0,82,0.00,,,0.00,meteohub,2013-12-17 07:47:00,
2013-12-17 02:52:00,-4.5,-8.7,30.09,West,269,0.0,5.0,82,0.00,,,0.00,meteohub,2013-12-17 07:52:00,
2013-12-17 02:57:00,-4.7,-8.9,30.09,NNW,329,1.0,5.0,82,0.00,,,0.00,meteohub,2013-12-17 07:57:00,
2013-12-17 03:02:00,-4.7,-8.9,30.09,ESE,119,0.0,5.0,82,0.00,,,0.00,meteohub,2013-12-17 08:02:00,
2013-12-17 03:07:00,-4.9,-9.0,30.09,East,82,1.0,4.0,82,0.00,,,0.00,meteohub,2013-12-17 08:07:00,
2013-12-17 03:12:00,-5.1,-9.2,30.09,East,83,0.0,4.0,82,0.00,,,0.00,meteohub,2013-12-17 08:12:00,
2013-12-17 03:17:00,-4.9,-8.7,30.09,SSW,205,0.0,3.0,83,0.00,,,0.00,meteohub,2013-12-17 08:17:00,
2013-12-17 03:22:00,-4.7,-8.5,30.09,NNW,339,3.0,5.0,83,0.00,,,0.00,meteohub,2013-12-17 08:22:00,
2013-12-17 03:27:00,-4.7,-8.9,30.09,NE,38,1.0,7.0,82,0.00,,,0.00,meteohub,2013-12-17 08:27:00,
2013-12-17 03:32:00,-4.7,-8.9,30.09,WSW,240,0.0,7.0,82,0.00,,,0.00,meteohub,2013-12-17 08:32:00,
2013-12-17 03:37:00,-4.9,-9.0,30.09,WNW,292,0.0,7.0,82,0.00,,,0.00,meteohub,2013-12-17 08:37:00,
2013-12-17 03:42:00,-4.9,-9.0,30.09,North,355,2.0,3.0,82,0.00,,,0.00,meteohub,2013-12-17 08:42:00,
2013-12-17 03:47:00,-4.9,-9.0,30.09,ENE,69,2.0,5.0,82,0.00,,,0.00,meteohub,2013-12-17 08:47:00,
2013-12-17 03:52:00,-5.1,-9.2,30.09,NE,54,2.0,5.0,82,0.00,,,0.00,meteohub,2013-12-17 08:52:00,
2013-12-17 03:57:00,-5.1,-8.9,30.09,NNE,23,1.0,5.0,83,0.00,,,0.00,meteohub,2013-12-17 08:57:00,
2013-12-17 04:02:00,-4.9,-8.7,30.09,NE,56,0.0,3.0,83,0.00,,,0.00,meteohub,2013-12-17 09:02:00,
2013-12-17 04:07:00,-4.7,-8.9,30.09,NE,38,2.0,4.0,82,0.00,,,0.00,meteohub,2013-12-17 09:07:00,
2013-12-17 04:12:00,-4.7,-8.5,30.10,North,5,3.0,7.0,83,0.00,,,0.00,meteohub,2013-12-17 09:12:00,
2013-12-17 04:17:00,-4.5,-8.7,30.10,NNW,341,3.0,7.0,82,0.00,,,0.00,meteohub,2013-12-17 09:17:00,
2013-12-17 04:22:00,-4.5,-8.7,30.10,North,355,3.0,7.0,82,0.00,,,0.00,meteohub,2013-12-17 09:22:00,
2013-12-17 04:27:00,-4.2,-8.3,30.10,NNW,334,0.0,6.0,82,0.00,,,0.00,meteohub,2013-12-17 09:27:00,
2013-12-17 04:32:00,-4.2,-8.3,30.11,NNW,345,0.0,6.0,82,0.00,,,0.00,meteohub,2013-12-17 09:32:00,
2013-12-17 04:37:00,-4.4,-8.7,30.11,WNW,290,0.0,6.0,81,0.00,,,0.00,meteohub,2013-12-17 09:37:00,
2013-12-17 04:42:00,-4.5,-8.9,30.11,NNW,340,1.0,6.0,81,0.00,,,0.00,meteohub,2013-12-17 09:42:00,
2013-12-17 04:47:00,-4.7,-9.0,30.12,West,271,0.0,7.0,81,0.00,,,0.00,meteohub,2013-12-17 09:47:00,
2013-12-17 04:52:00,-5.1,-9.4,30.12,WSW,253,0.0,7.0,81,0.00,,,0.00,meteohub,2013-12-17 09:52:00,
2013-12-17 04:57:00,-5.4,-9.8,30.12,SW,217,1.0,7.0,81,0.00,,,0.00,meteohub,2013-12-17 09:57:00,
2013-12-17 05:02:00,-5.4,-9.8,30.12,SW,235,0.0,6.0,81,0.00,,,0.00,meteohub,2013-12-17 10:02:00,
2013-12-17 05:07:00,-5.8,-10.1,30.13,SW,217,0.0,6.0,81,0.00,,,0.00,meteohub,2013-12-17 10:07:00,
2013-12-17 05:12:00,-6.0,-10.1,30.13,SW,217,0.0,6.0,82,0.00,,,0.00,meteohub,2013-12-17 10:12:00,
2013-12-17 05:17:00,-6.2,-10.3,30.13,SW,218,0.0,3.0,82,0.00,,,0.00,meteohub,2013-12-17 10:17:00,
2013-12-17 05:23:00,-6.3,-10.3,30.14,SW,218,0.0,2.0,82,0.00,,,0.00,meteohub,2013-12-17 10:23:00,
2013-12-17 05:28:00,-6.5,-10.5,30.14,SW,218,0.0,2.0,82,0.00,,,0.00,meteohub,2013-12-17 10:28:00,
2013-12-17 05:33:00,-7.4,-11.7,30.14,SW,225,0.0,2.0,81,0.00,,,0.00,meteohub,2013-12-17 10:33:00,
2013-12-17 05:38:00,-8.0,-11.9,30.14,SW,225,0.0,2.0,82,0.00,,,0.00,meteohub,2013-12-17 10:38:00,
2013-12-17 05:43:00,-8.3,-12.3,30.14,WSW,244,1.0,2.0,82,0.00,,,0.00,meteohub,2013-12-17 10:43:00,
2013-12-17 05:48:00,-8.3,-12.1,30.14,WSW,244,0.0,2.0,83,0.00,,,0.00,meteohub,2013-12-17 10:48:00,
2013-12-17 05:53:00,-8.1,-11.9,30.14,WSW,244,1.0,2.0,83,0.00,,,0.00,meteohub,2013-12-17 10:53:00,
2013-12-17 05:58:00,-8.1,-11.9,30.15,WSW,244,0.0,2.0,83,0.00,,,0.00,meteohub,2013-12-17 10:58:00,
2013-12-17 06:04:00,-8.1,-11.9,30.15,WSW,244,0.0,2.0,83,0.00,,,0.00,meteohub,2013-12-17 11:04:00,
2013-12-17 06:09:00,-8.1,-11.9,30.15,WSW,255,0.0,2.0,83,0.00,,,0.00,meteohub,2013-12-17 11:09:00,
2013-12-17 06:14:00,-8.0,-11.7,30.15,WSW,254,0.0,1.0,83,0.00,,,0.00,meteohub,2013-12-17 11:14:00,
2013-12-17 06:20:00,-8.1,-11.9,30.16,WSW,254,0.0,1.0,83,0.00,,,0.00,meteohub,2013-12-17 11:20:00,
2013-12-17 06:25:00,-8.3,-12.1,30.16,WSW,254,0.0,1.0,83,0.00,,,0.00,meteohub,2013-12-17 11:25:00,
2013-12-17 06:30:00,-8.5,-12.3,30.16,WSW,254,0.0,1.0,83,0.00,,,0.00,meteohub,2013-12-17 11:30:00,
2013-12-17 06:35:00,-8.5,-12.1,30.17,SSE,165,0.0,1.0,84,0.00,,,0.00,meteohub,2013-12-17 11:35:00,
2013-12-17 06:40:00,-8.7,-11.9,30.17,SSE,165,0.0,1.0,85,0.00,,,0.00,meteohub,2013-12-17 11:40:00,
2013-12-17 06:45:00,-8.9,-12.1,30.17,SSE,165,0.0,1.0,85,0.00,,,0.00,meteohub,2013-12-17 11:45:00,
2013-12-17 06:50:00,-9.0,-12.3,30.17,WSW,254,0.0,1.0,85,0.00,,,0.00,meteohub,2013-12-17 11:50:00,
2013-12-17 06:55:00,-9.0,-12.3,30.17,WSW,254,0.0,2.0,85,0.00,,,0.00,meteohub,2013-12-17 11:55:00,
2013-12-17 07:01:00,-8.9,-12.1,30.17,WSW,254,0.0,2.0,85,0.00,,,0.00,meteohub,2013-12-17 12:01:00,
2013-12-17 07:06:00,-9.2,-12.8,30.17,South,183,0.0,1.0,84,0.00,,,0.00,meteohub,2013-12-17 12:06:00,
2013-12-17 07:11:00,-9.8,-13.2,30.17,South,183,0.0,1.0,84,0.00,,,0.00,meteohub,2013-12-17 12:11:00,
2013-12-17 07:16:00,-10.1,-13.5,30.18,South,183,0.0,1.0,84,0.00,,,0.00,meteohub,2013-12-17 12:16:00,
2013-12-17 07:21:00,-10.7,-14.1,30.18,South,183,0.0,1.0,84,0.00,,,0.00,meteohub,2013-12-17 12:21:00,
2013-12-17 07:26:00,-10.8,-14.3,30.18,South,183,0.0,1.0,84,0.00,,,0.00,meteohub,2013-12-17 12:26:00,
2013-12-17 07:31:00,-10.8,-14.3,30.18,South,183,0.0,1.0,84,0.00,,,0.00,meteohub,2013-12-17 12:31:00,
2013-12-17 07:36:00,-11.0,-14.4,30.19,South,183,0.0,0.0,84,0.00,,,0.00,meteohub,2013-12-17 12:36:00,
2013-12-17 07:42:00,-11.0,-14.4,30.19,South,183,0.0,0.0,84,0.00,,,0.00,meteohub,2013-12-17 12:42:00,
2013-12-17 07:47:00,-10.8,-14.3,30.19,South,183,1.0,1.0,84,0.00,,,0.00,meteohub,2013-12-17 12:47:00,
2013-12-17 07:52:00,-10.8,-14.3,30.19,SSW,196,0.0,1.0,84,0.00,,,0.00,meteohub,2013-12-17 12:52:00,
2013-12-17 07:57:00,-10.8,-14.3,30.19,SSW,197,1.0,2.0,84,0.00,,,0.00,meteohub,2013-12-17 12:57:00,
2013-12-17 08:02:00,-10.7,-14.1,30.20,SSW,197,0.0,2.0,84,0.00,,,0.00,meteohub,2013-12-17 13:02:00,
2013-12-17 08:07:00,-10.5,-13.9,30.20,SSW,197,0.0,2.0,84,0.00,,,0.00,meteohub,2013-12-17 13:07:00,
2013-12-17 08:12:00,-10.1,-13.5,30.21,SSW,197,0.0,2.0,84,0.00,,,0.00,meteohub,2013-12-17 13:12:00,
2013-12-17 08:17:00,-10.1,-13.5,30.21,SSW,196,0.0,2.0,84,0.00,,,0.00,meteohub,2013-12-17 13:17:00,
2013-12-17 08:22:00,-9.9,-13.4,30.21,SSW,196,0.0,2.0,84,0.00,,,0.00,meteohub,2013-12-17 13:22:00,
2013-12-17 08:27:00,-9.8,-13.0,30.21,SSW,196,0.0,2.0,85,0.00,,,0.00,meteohub,2013-12-17 13:27:00,
2013-12-17 08:32:00,-9.4,-12.6,30.21,SSW,196,0.0,0.0,85,0.00,,,0.00,meteohub,2013-12-17 13:32:00,
2013-12-17 08:37:00,-9.0,-12.3,30.21,ESE,118,1.0,1.0,85,0.00,,,0.00,meteohub,2013-12-17 13:37:00,
2013-12-17 08:42:00,-8.7,-11.9,30.21,NE,36,0.0,2.0,85,0.00,,,0.00,meteohub,2013-12-17 13:42:00,
2013-12-17 08:47:00,-8.1,-11.4,30.21,NE,47,1.0,3.0,85,0.00,,,0.00,meteohub,2013-12-17 13:47:00,
2013-12-17 08:52:00,-7.6,-10.8,30.21,ENE,63,0.0,3.0,85,0.00,,,0.00,meteohub,2013-12-17 13:52:00,
2013-12-17 08:57:00,-7.1,-10.7,30.21,WSW,238,1.0,3.0,84,0.00,,,0.00,meteohub,2013-12-17 13:57:00,
2013-12-17 09:02:00,-6.5,-10.3,30.21,WSW,247,0.0,3.0,83,0.00,,,0.00,meteohub,2013-12-17 14:02:00,
2013-12-17 09:08:00,-6.5,-10.5,30.21,WSW,256,0.0,5.0,82,0.00,,,0.00,meteohub,2013-12-17 14:08:00,
2013-12-17 09:13:00,-6.3,-10.3,30.21,East,95,2.0,6.0,82,0.00,,,0.00,meteohub,2013-12-17 14:13:00,
2013-12-17 09:18:00,-6.2,-10.5,30.21,East,96,1.0,6.0,81,0.00,,,0.00,meteohub,2013-12-17 14:18:00,
2013-12-17 09:23:00,-6.0,-10.3,30.21,WSW,253,1.0,6.0,81,0.00,,,0.00,meteohub,2013-12-17 14:23:00,
2013-12-17 09:28:00,-5.4,-9.8,30.21,SSW,209,0.0,3.0,81,0.00,,,0.00,meteohub,2013-12-17 14:28:00,
2013-12-17 09:33:00,-5.1,-9.4,30.21,WSW,238,1.0,6.0,81,0.00,,,0.00,meteohub,2013-12-17 14:33:00,
2013-12-17 09:38:00,-5.1,-9.6,30.21,NW,323,5.0,6.0,80,0.00,,,0.00,meteohub,2013-12-17 14:38:00,
2013-12-17 09:42:00,-5.1,-9.9,30.22,NW,320,6.0,7.0,79,0.00,,,0.00,meteohub,2013-12-17 14:42:00,
2013-12-17 09:47:00,-4.9,-9.8,30.22,WNW,287,9.0,9.0,79,0.00,,,0.00,meteohub,2013-12-17 14:47:00,
2013-12-17 09:52:00,-4.9,-9.8,30.22,WSW,255,0.0,11.0,79,0.00,,,0.00,meteohub,2013-12-17 14:52:00,
2013-12-17 09:57:00,-4.5,-9.4,30.22,West,261,4.0,11.0,79,0.00,,,0.00,meteohub,2013-12-17 14:57:00,
2013-12-17 10:03:00,-4.4,-9.2,30.22,West,263,2.0,9.0,79,0.00,,,0.00,meteohub,2013-12-17 15:03:00,
2013-12-17 10:08:00,-4.2,-9.0,30.22,WSW,256,7.0,9.0,79,0.00,,,0.00,meteohub,2013-12-17 15:08:00,
2013-12-17 10:13:00,-4.0,-8.9,30.21,WSW,238,3.0,7.0,79,0.00,,,0.00,meteohub,2013-12-17 15:13:00,
2013-12-17 10:18:00,-3.5,-8.1,30.22,West,274,3.0,8.0,80,0.00,,,0.00,meteohub,2013-12-17 15:18:00,
2013-12-17 10:23:00,-3.3,-8.5,30.22,WSW,250,2.0,8.0,78,0.00,,,0.00,meteohub,2013-12-17 15:23:00,
2013-12-17 10:28:00,-3.1,-8.0,30.21,West,261,0.0,7.0,79,0.00,,,0.00,meteohub,2013-12-17 15:28:00,
2013-12-17 10:33:00,-2.6,-7.4,30.21,WNW,291,3.0,6.0,79,0.00,,,0.00,meteohub,2013-12-17 15:33:00,
2013-12-17 10:38:00,-1.8,-6.7,30.21,NW,315,2.0,6.0,79,0.00,,,0.00,meteohub,2013-12-17 15:38:00,
2013-12-17 10:44:00,-1.5,-6.3,30.21,SW,232,0.0,6.0,79,0.00,,,0.00,meteohub,2013-12-17 15:44:00,
2013-12-17 10:49:00,-0.8,-5.6,30.20,WSW,238,1.0,5.0,79,0.00,,,0.00,meteohub,2013-12-17 15:49:00,
2013-12-17 10:54:00,-0.2,-5.4,30.19,SW,214,0.0,5.0,78,0.00,,,0.00,meteohub,2013-12-17 15:54:00,
2013-12-17 10:59:00,0.0,-5.3,30.19,NW,310,0.0,4.0,78,0.00,,,0.00,meteohub,2013-12-17 15:59:00,
2013-12-17 11:04:00,0.3,-4.9,30.19,West,279,0.0,5.0,78,0.00,,,0.00,meteohub,2013-12-17 16:04:00,
2013-12-17 11:09:00,1.2,-4.0,30.18,NE,40,1.0,5.0,78,0.00,,,0.00,meteohub,2013-12-17 16:09:00,
2013-12-17 11:14:00,1.6,-3.6,30.18,NE,40,0.0,5.0,78,0.00,,,0.00,meteohub,2013-12-17 16:14:00,
2013-12-17 11:19:00,1.9,-3.3,30.19,NNW,333,0.0,3.0,78,0.00,,,0.00,meteohub,2013-12-17 16:19:00,
2013-12-17 11:25:00,1.9,-3.6,30.18,North,0,0.0,3.0,77,0.00,,,0.00,meteohub,2013-12-17 16:25:00,
2013-12-17 11:30:00,1.9,-3.6,30.18,WNW,296,0.0,5.0,77,0.00,,,0.00,meteohub,2013-12-17 16:30:00,
2013-12-17 11:35:00,2.5,-2.7,30.18,WNW,296,2.0,5.0,78,0.00,,,0.00,meteohub,2013-12-17 16:35:00,
2013-12-17 11:40:00,2.7,-2.6,30.18,North,0,0.0,3.0,78,0.00,,,0.00,meteohub,2013-12-17 16:40:00,
2013-12-17 11:45:00,2.8,-2.4,30.18,NE,43,2.0,3.0,78,0.00,,,0.00,meteohub,2013-12-17 16:45:00,
2013-12-17 11:50:00,2.8,-2.4,30.18,NE,43,0.0,3.0,78,0.00,,,0.00,meteohub,2013-12-17 16:50:00,
2013-12-17 11:55:00,2.8,-2.4,30.18,NE,42,0.0,3.0,78,0.00,,,0.00,meteohub,2013-12-17 16:55:00,
2013-12-17 12:00:00,3.4,-1.8,30.17,NNW,333,1.0,2.0,78,0.00,,,0.00,meteohub,2013-12-17 17:00:00,
2013-12-17 12:06:00,3.7,-1.7,30.17,NW,321,0.0,2.0,78,0.00,,,0.00,meteohub,2013-12-17 17:06:00,
2013-12-17 12:11:00,3.7,-1.7,30.16,NE,39,0.0,2.0,78,0.00,,,0.00,meteohub,2013-12-17 17:11:00,
2013-12-17 12:16:00,3.7,-1.7,30.16,NE,39,0.0,2.0,78,0.00,,,0.00,meteohub,2013-12-17 17:16:00,
2013-12-17 12:21:00,4.1,-1.3,30.16,North,10,0.0,2.0,78,0.00,,,0.00,meteohub,2013-12-17 17:21:00,
2013-12-17 12:26:00,4.6,-0.8,30.16,NNW,330,0.0,2.0,78,0.00,,,0.00,meteohub,2013-12-17 17:26:00,
2013-12-17 12:31:00,5.5,0.0,30.16,NW,318,1.0,2.0,77,0.00,,,0.00,meteohub,2013-12-17 17:31:00,
2013-12-17 12:36:00,5.7,0.1,30.16,West,261,2.0,4.0,77,0.00,,,0.00,meteohub,2013-12-17 17:36:00,
2013-12-17 12:42:00,6.1,0.7,30.16,West,262,0.0,4.0,78,0.00,,,0.00,meteohub,2013-12-17 17:42:00,
2013-12-17 12:47:00,6.3,0.7,30.16,West,262,1.0,4.0,77,0.00,,,0.00,meteohub,2013-12-17 17:47:00,
2013-12-17 12:52:00,6.1,0.7,30.16,West,262,0.0,3.0,78,0.00,,,0.00,meteohub,2013-12-17 17:52:00,
2013-12-17 12:57:00,6.4,1.4,30.16,West,262,1.0,1.0,79,0.00,,,0.00,meteohub,2013-12-17 17:57:00,
2013-12-17 13:02:00,7.2,1.4,30.16,SSW,210,0.0,1.0,77,0.00,,,0.00,meteohub,2013-12-17 18:02:00,
2013-12-17 13:07:00,7.3,1.6,30.16,SSW,197,0.0,4.0,77,0.00,,,0.00,meteohub,2013-12-17 18:07:00,
2013-12-17 13:12:00,7.3,1.6,30.16,SSW,197,1.0,4.0,77,0.00,,,0.00,meteohub,2013-12-17 18:12:00,
2013-12-17 13:17:00,7.3,1.6,30.17,SE,127,1.0,3.0,77,0.00,,,0.00,meteohub,2013-12-17 18:17:00,
2013-12-17 13:22:00,7.5,1.8,30.17,SW,220,3.0,3.0,77,0.00,,,0.00,meteohub,2013-12-17 18:22:00,
2013-12-17 13:27:00,7.5,1.8,30.17,South,189,0.0,4.0,77,0.00,,,0.00,meteohub,2013-12-17 18:27:00,
2013-12-17 13:32:00,7.5,1.8,30.17,ESE,116,0.0,4.0,77,0.00,,,0.00,meteohub,2013-12-17 18:32:00,
2013-12-17 13:37:00,7.9,2.1,30.17,South,190,1.0,4.0,77,0.00,,,0.00,meteohub,2013-12-17 18:37:00,
2013-12-17 13:42:00,8.1,2.3,30.17,SSW,207,1.0,4.0,77,0.00,,,0.00,meteohub,2013-12-17 18:42:00,
2013-12-17 13:47:00,8.2,2.3,30.17,SSW,207,0.0,3.0,76,0.00,,,0.00,meteohub,2013-12-17 18:47:00,
2013-12-17 13:52:00,8.8,3.0,30.16,SSW,207,0.0,3.0,77,0.00,,,0.00,meteohub,2013-12-17 18:52:00,
2013-12-17 13:57:00,9.3,3.4,30.16,SSW,207,0.0,2.0,76,0.00,,,0.00,meteohub,2013-12-17 18:57:00,
2013-12-17 14:03:00,9.7,3.4,30.16,SSW,207,0.0,2.0,75,0.00,,,0.00,meteohub,2013-12-17 19:03:00,
2013-12-17 14:08:00,9.7,3.4,30.16,SSW,207,0.0,0.0,75,0.00,,,0.00,meteohub,2013-12-17 19:08:00,
2013-12-17 14:13:00,9.3,3.0,30.16,SSW,207,0.0,0.0,75,0.00,,,0.00,meteohub,2013-12-17 19:13:00,
2013-12-17 14:18:00,9.0,2.7,30.16,SSW,208,1.0,2.0,75,0.01,,,0.01,meteohub,2013-12-17 19:18:00,
2013-12-17 14:23:00,8.4,2.1,30.16,SE,131,2.0,3.0,75,0.01,,,0.01,meteohub,2013-12-17 19:23:00,
2013-12-17 14:28:00,7.9,1.9,30.15,SE,132,0.0,3.0,76,0.01,,,0.01,meteohub,2013-12-17 19:28:00,
2013-12-17 14:33:00,6.6,0.7,30.16,SSE,166,1.0,3.0,76,0.01,,,0.01,meteohub,2013-12-17 19:33:00,
2013-12-17 14:38:00,5.5,0.1,30.16,SSW,192,2.0,3.0,78,0.01,,,0.01,meteohub,2013-12-17 19:38:00,
2013-12-17 14:44:00,4.8,0.0,30.16,SSW,192,0.0,2.0,80,0.01,,,0.01,meteohub,2013-12-17 19:44:00,
2013-12-17 14:49:00,4.6,0.1,30.16,SSW,192,0.0,2.0,81,0.01,,,0.01,meteohub,2013-12-17 19:49:00,
2013-12-17 14:54:00,4.3,0.0,30.17,SSW,192,0.0,2.0,82,0.01,,,0.01,meteohub,2013-12-17 19:54:00,
2013-12-17 14:59:00,4.1,-0.2,30.17,SSW,192,0.0,2.0,82,0.01,,,0.01,meteohub,2013-12-17 19:59:00,
2013-12-17 15:04:00,3.9,0.0,30.17,SSW,192,0.0,2.0,83,0.01,,,0.01,meteohub,2013-12-17 20:04:00,
2013-12-17 15:09:00,3.7,-0.2,30.18,SSW,192,0.0,2.0,83,0.01,,,0.01,meteohub,2013-12-17 20:09:00,
2013-12-17 15:14:00,3.7,0.0,30.18,SSW,192,0.0,2.0,84,0.01,,,0.01,meteohub,2013-12-17 20:14:00,
2013-12-17 15:20:00,3.6,-0.2,30.18,SSW,192,0.0,2.0,84,0.00,,,0.01,meteohub,2013-12-17 20:20:00,
2013-12-17 15:25:00,3.4,-0.4,30.18,SSW,192,0.0,2.0,84,0.00,,,0.01,meteohub,2013-12-17 20:25:00,
2013-12-17 15:30:00,3.4,0.0,30.17,SSW,192,0.0,1.0,85,0.00,,,0.01,meteohub,2013-12-17 20:30:00,
2013-12-17 15:35:00,3.0,-0.4,30.17,SSW,192,1.0,1.0,85,0.00,,,0.01,meteohub,2013-12-17 20:35:00,
2013-12-17 15:40:00,2.7,-1.1,30.17,SSW,196,2.0,2.0,84,0.00,,,0.01,meteohub,2013-12-17 20:40:00,
2013-12-17 15:45:00,2.7,-0.8,30.17,SSE,160,0.0,3.0,85,0.00,,,0.01,meteohub,2013-12-17 20:45:00,
2013-12-17 15:50:00,2.7,-0.8,30.17,SSE,160,0.0,3.0,85,0.00,,,0.01,meteohub,2013-12-17 20:50:00,
2013-12-17 15:55:00,2.1,-1.3,30.17,SSW,208,2.0,3.0,85,0.00,,,0.01,meteohub,2013-12-17 20:55:00,
2013-12-17 16:01:00,1.8,-1.7,30.17,SSW,192,0.0,4.0,85,0.00,,,0.01,meteohub,2013-12-17 21:01:00,
2013-12-17 16:06:00,1.9,-1.5,30.17,SSW,192,0.0,4.0,85,0.00,,,0.01,meteohub,2013-12-17 21:06:00,
2013-12-17 16:11:00,1.8,-1.7,30.17,SSW,192,1.0,4.0,85,0.00,,,0.01,meteohub,2013-12-17 21:11:00,
2013-12-17 16:16:00,1.4,-2.0,30.17,SSW,192,0.0,4.0,85,0.00,,,0.01,meteohub,2013-12-17 21:16:00,
2013-12-17 16:21:00,1.0,-2.4,30.18,SSW,192,0.0,2.0,85,0.00,,,0.01,meteohub,2013-12-17 21:21:00,
2013-12-17 16:26:00,0.9,-2.4,30.18,SSW,192,0.0,2.0,86,0.00,,,0.01,meteohub,2013-12-17 21:26:00,
2013-12-17 16:31:00,0.3,-2.9,30.18,SSW,192,0.0,2.0,86,0.00,,,0.01,meteohub,2013-12-17 21:31:00,
2013-12-17 16:36:00,0.0,-3.3,30.17,SSW,192,1.0,0.0,86,0.00,,,0.01,meteohub,2013-12-17 21:36:00,
2013-12-17 16:42:00,-0.4,-3.6,30.17,SSW,192,1.0,1.0,86,0.00,,,0.01,meteohub,2013-12-17 21:42:00,
2013-12-17 16:47:00,-0.4,-3.6,30.17,South,182,1.0,2.0,86,0.00,,,0.01,meteohub,2013-12-17 21:47:00,
2013-12-17 16:52:00,-0.6,-3.8,30.16,South,182,0.0,2.0,86,0.00,,,0.01,meteohub,2013-12-17 21:52:00,
2013-12-17 16:57:00,-0.8,-4.2,30.16,South,182,0.0,2.0,85,0.00,,,0.01,meteohub,2013-12-17 21:57:00,
2013-12-17 17:02:00,-0.8,-4.0,30.16,South,182,0.0,2.0,86,0.00,,,0.01,meteohub,2013-12-17 22:02:00,
2013-12-17 17:07:00,-0.8,-4.2,30.15,South,184,0.0,2.0,85,0.00,,,0.01,meteohub,2013-12-17 22:07:00,
2013-12-17 17:12:00,-0.9,-4.4,30.15,South,185,1.0,2.0,85,0.00,,,0.01,meteohub,2013-12-17 22:12:00,
2013-12-17 17:17:00,-1.1,-4.4,30.15,South,185,0.0,2.0,86,0.00,,,0.01,meteohub,2013-12-17 22:17:00,
2013-12-17 17:20:00,-0.9,-4.2,30.16,South,185,0.0,2.0,86,0.00,,,0.01,meteohub,2013-12-17 22:20:00,
2013-12-17 17:25:00,-0.9,-4.2,30.15,South,185,0.0,3.0,86,0.00,,,0.01,meteohub,2013-12-17 22:25:00,
2013-12-17 17:30:00,-0.9,-4.2,30.15,South,185,0.0,3.0,86,0.00,,,0.01,meteohub,2013-12-17 22:30:00,
2013-12-17 17:35:00,-0.8,-4.0,30.16,South,185,1.0,1.0,86,0.00,,,0.01,meteohub,2013-12-17 22:35:00,
2013-12-17 17:40:00,-0.8,-4.0,30.15,South,188,0.0,1.0,86,0.00,,,0.01,meteohub,2013-12-17 22:40:00,
2013-12-17 17:45:00,-0.9,-4.4,30.15,SE,135,0.0,2.0,85,0.00,,,0.01,meteohub,2013-12-17 22:45:00,
2013-12-17 17:50:00,-1.1,-4.5,30.15,SE,135,0.0,3.0,85,0.00,,,0.01,meteohub,2013-12-17 22:50:00,
2013-12-17 17:55:00,-0.9,-4.4,30.14,SSE,161,1.0,3.0,85,0.00,,,0.01,meteohub,2013-12-17 22:55:00,
2013-12-17 18:01:00,-1.1,-4.5,30.14,SSW,204,0.0,3.0,85,0.00,,,0.01,meteohub,2013-12-17 23:01:00,
2013-12-17 18:06:00,-1.1,-4.5,30.14,SSW,203,0.0,3.0,85,0.00,,,0.01,meteohub,2013-12-17 23:06:00,
2013-12-17 18:11:00,-1.5,-4.9,30.14,SSW,203,0.0,3.0,85,0.00,,,0.01,meteohub,2013-12-17 23:11:00,
2013-12-17 18:16:00,-1.7,-5.1,30.14,SSW,203,0.0,2.0,85,0.00,,,0.01,meteohub,2013-12-17 23:16:00,
2013-12-17 18:21:00,-1.7,-5.1,30.14,SSW,203,0.0,0.0,85,0.00,,,0.01,meteohub,2013-12-17 23:21:00,
2013-12-17 18:26:00,-1.7,-4.9,30.14,SSW,203,0.0,0.0,86,0.00,,,0.01,meteohub,2013-12-17 23:26:00,
2013-12-17 18:31:00,-1.7,-4.9,30.14,SSW,203,0.0,1.0,86,0.00,,,0.01,meteohub,2013-12-17 23:31:00,
2013-12-17 18:36:00,-1.7,-4.9,30.14,SSW,203,0.0,1.0,86,0.00,,,0.01,meteohub,2013-12-17 23:36:00,
2013-12-17 18:42:00,-1.7,-4.9,30.14,SSW,203,0.0,0.0,86,0.00,,,0.01,meteohub,2013-12-17 23:42:00,
2013-12-17 18:47:00,-1.8,-5.1,30.14,SSW,203,0.0,0.0,86,0.00,,,0.01,meteohub,2013-12-17 23:47:00,
2013-12-17 18:52:00,-1.7,-4.9,30.14,SSW,203,0.0,0.0,86,0.00,,,0.01,meteohub,2013-12-17 23:52:00,
2013-12-17 18:57:00,-1.7,-4.9,30.15,SSW,204,1.0,0.0,86,0.00,,,0.01,meteohub,2013-12-17 23:57:00,
2013-12-17 19:02:00,-1.7,-4.5,30.14,SSW,204,0.0,1.0,87,0.00,,,0.01,meteohub,2013-12-18 00:02:00,
2013-12-17 19:07:00,-1.8,-5.1,30.14,SSW,204,0.0,1.0,86,0.00,,,0.00,meteohub,2013-12-18 00:07:00,
2013-12-17 19:12:00,-1.8,-5.1,30.15,SSW,204,0.0,1.0,86,0.00,,,0.00,meteohub,2013-12-18 00:12:00,
2013-12-17 19:17:00,-2.0,-5.4,30.15,SSW,203,0.0,1.0,85,0.00,,,0.00,meteohub,2013-12-18 00:17:00,
2013-12-17 19:22:00,-2.0,-5.3,30.15,SSW,203,0.0,2.0,86,0.00,,,0.00,meteohub,2013-12-18 00:22:00,
2013-12-17 19:27:00,-2.0,-5.3,30.15,SSW,203,0.0,2.0,86,0.00,,,0.00,meteohub,2013-12-18 00:27:00,
2013-12-17 19:32:00,-1.8,-5.1,30.15,SSW,203,0.0,2.0,86,0.00,,,0.00,meteohub,2013-12-18 00:32:00,
2013-12-17 19:37:00,-1.8,-4.7,30.14,SSW,203,0.0,1.0,87,0.00,,,0.00,meteohub,2013-12-18 00:37:00,
2013-12-17 19:43:00,-2.0,-5.3,30.14,SSW,203,0.0,1.0,86,0.00,,,0.00,meteohub,2013-12-18 00:43:00,
2013-12-17 19:48:00,-2.2,-5.3,30.13,SSW,203,0.0,0.0,86,0.00,,,0.00,meteohub,2013-12-18 00:48:00,
2013-12-17 19:53:00,-2.4,-5.4,30.14,North,-999,-999.0,0.0,86,0.00,,,0.00,meteohub,2013-12-18 00:53:00,
2013-12-17 19:58:00,-2.4,-5.4,30.14,SSW,203,0.0,0.0,86,0.00,,,0.00,meteohub,2013-12-18 00:58:00,
2013-12-17 20:03:00,-2.4,-5.4,30.13,SSW,203,0.0,2.0,86,0.00,,,0.00,meteohub,2013-12-18 01:03:00,
2013-12-17 20:08:00,-2.4,-5.4,30.13,SSW,203,0.0,2.0,86,0.00,,,0.00,meteohub,2013-12-18 01:08:00,
2013-12-17 20:13:00,-2.6,-5.6,30.13,SSW,203,0.0,2.0,86,0.00,,,0.00,meteohub,2013-12-18 01:13:00,
2013-12-17 20:19:00,-2.6,-5.6,30.12,SSW,203,0.0,0.0,86,0.00,,,0.00,meteohub,2013-12-18 01:19:00,
2013-12-17 20:24:00,-2.7,-5.8,30.12,SSW,203,0.0,0.0,86,0.00,,,0.00,meteohub,2013-12-18 01:24:00,
2013-12-17 20:29:00,-3.1,-6.2,30.12,SSW,203,0.0,0.0,86,0.00,,,0.00,meteohub,2013-12-18 01:29:00,
2013-12-17 20:34:00,-3.1,-6.2,30.11,SSW,203,0.0,0.0,86,0.00,,,0.00,meteohub,2013-12-18 01:34:00,
2013-12-17 20:39:00,-3.3,-6.2,30.11,SSW,204,0.0,0.0,87,0.00,,,0.00,meteohub,2013-12-18 01:39:00,
2013-12-17 20:44:00,-3.3,-6.3,30.10,SSW,204,0.0,2.0,86,0.00,,,0.00,meteohub,2013-12-18 01:44:00,
2013-12-17 20:49:00,-2.9,-5.8,30.11,SSW,204,0.0,2.0,87,0.00,,,0.00,meteohub,2013-12-18 01:49:00,
2013-12-17 20:54:00,-2.7,-5.6,30.11,SSW,203,1.0,2.0,87,0.00,,,0.00,meteohub,2013-12-18 01:54:00,
2013-12-17 21:00:00,-2.9,-6.0,30.10,South,187,0.0,1.0,86,0.00,,,0.00,meteohub,2013-12-18 02:00:00,
2013-12-17 21:05:00,-2.9,-5.8,30.10,South,189,0.0,2.0,87,0.00,,,0.00,meteohub,2013-12-18 02:05:00,
2013-12-17 21:10:00,-2.9,-5.8,30.11,SW,230,0.0,3.0,87,0.00,,,0.00,meteohub,2013-12-18 02:10:00,
2013-12-17 21:15:00,-2.7,-5.6,30.13,SW,230,0.0,3.0,87,0.00,,,0.00,meteohub,2013-12-18 02:15:00,
2013-12-17 21:20:00,-2.7,-5.6,30.13,SW,230,0.0,3.0,87,0.00,,,0.00,meteohub,2013-12-18 02:20:00,
2013-12-17 21:25:00,-2.7,-5.6,30.13,SW,230,0.0,1.0,87,0.00,,,0.00,meteohub,2013-12-18 02:25:00,
2013-12-17 21:30:00,-2.7,-5.6,30.13,SW,230,0.0,1.0,87,0.00,,,0.00,meteohub,2013-12-18 02:30:00,
2013-12-17 21:36:00,-2.6,-5.4,30.12,SSW,205,0.0,1.0,87,0.00,,,0.00,meteohub,2013-12-18 02:36:00,
2013-12-17 21:41:00,-2.4,-5.3,30.12,SSW,205,0.0,1.0,87,0.00,,,0.00,meteohub,2013-12-18 02:41:00,
2013-12-17 21:46:00,-2.4,-5.3,30.11,SSW,206,1.0,1.0,87,0.00,,,0.00,meteohub,2013-12-18 02:46:00,
2013-12-17 21:51:00,-1.8,-4.7,30.12,SW,226,3.0,3.0,87,0.00,,,0.00,meteohub,2013-12-18 02:51:00,
2013-12-17 21:56:00,-1.3,-4.2,30.12,South,187,1.0,3.0,87,0.00,,,0.00,meteohub,2013-12-18 02:56:00,
2013-12-17 22:01:00,-0.8,-3.6,30.12,SE,133,0.0,3.0,87,0.00,,,0.00,meteohub,2013-12-18 03:01:00,
2013-12-17 22:06:00,-0.6,-3.8,30.11,SE,133,0.0,3.0,86,0.00,,,0.00,meteohub,2013-12-18 03:06:00,
2013-12-17 22:11:00,-0.6,-3.8,30.13,SE,133,0.0,2.0,86,0.00,,,0.00,meteohub,2013-12-18 03:11:00,
2013-12-17 22:17:00,0.0,-3.3,30.12,SE,128,0.0,1.0,86,0.00,,,0.00,meteohub,2013-12-18 03:17:00,
2013-12-17 22:22:00,0.0,-3.3,30.12,ESE,121,0.0,2.0,86,0.00,,,0.00,meteohub,2013-12-18 03:22:00,
2013-12-17 22:27:00,0.1,-3.1,30.12,ESE,121,0.0,3.0,86,0.00,,,0.00,meteohub,2013-12-18 03:27:00,
2013-12-17 22:32:00,0.1,-3.1,30.12,SE,127,1.0,3.0,86,0.00,,,0.00,meteohub,2013-12-18 03:32:00,
2013-12-17 22:37:00,0.3,-2.9,30.13,SSE,157,0.0,2.0,86,0.00,,,0.00,meteohub,2013-12-18 03:37:00,
2013-12-17 22:42:00,0.3,-2.9,30.13,SSE,157,0.0,1.0,86,0.00,,,0.00,meteohub,2013-12-18 03:42:00,
2013-12-17 22:47:00,0.5,-2.7,30.12,SSE,157,0.0,1.0,86,0.00,,,0.00,meteohub,2013-12-18 03:47:00,
2013-12-17 22:52:00,0.7,-2.6,30.12,ENE,63,0.0,1.0,86,0.00,,,0.00,meteohub,2013-12-18 03:52:00,
2013-12-17 22:57:00,0.9,-2.4,30.12,South,173,0.0,1.0,86,0.00,,,0.00,meteohub,2013-12-18 03:57:00,
2013-12-17 23:02:00,1.0,-2.2,30.12,South,182,0.0,1.0,86,0.00,,,0.00,meteohub,2013-12-18 04:02:00,
2013-12-17 23:07:00,1.2,-2.0,30.12,SE,130,0.0,2.0,86,0.00,,,0.00,meteohub,2013-12-18 04:07:00,
2013-12-17 23:12:00,1.4,-1.8,30.12,SE,136,0.0,4.0,86,0.00,,,0.00,meteohub,2013-12-18 04:12:00,
2013-12-17 23:17:00,1.6,-1.8,30.12,SSE,159,0.0,4.0,85,0.00,,,0.00,meteohub,2013-12-18 04:17:00,
2013-12-17 23:22:00,1.6,-1.8,30.12,SSW,209,0.0,4.0,85,0.00,,,0.00,meteohub,2013-12-18 04:22:00,
2013-12-17 23:27:00,1.8,-1.7,30.12,SSW,196,0.0,3.0,85,0.00,,,0.00,meteohub,2013-12-18 04:27:00,
2013-12-17 23:33:00,1.8,-1.7,30.12,SE,127,0.0,3.0,85,0.00,,,0.00,meteohub,2013-12-18 04:33:00,
2013-12-17 23:38:00,1.8,-1.7,30.12,SE,125,0.0,3.0,85,0.00,,,0.00,meteohub,2013-12-18 04:38:00,
2013-12-17 23:43:00,1.8,-1.7,30.11,ESE,111,2.0,2.0,85,0.00,,,0.00,meteohub,2013-12-18 04:43:00,
2013-12-17 23:48:00,1.8,-1.7,30.11,ESE,115,0.0,3.0,85,0.00,,,0.00,meteohub,2013-12-18 04:48:00,
2013-12-17 23:53:00,1.8,-1.5,30.12,SE,143,2.0,3.0,86,0.00,,,0.00,meteohub,2013-12-18 04:53:00,
2013-12-17 23:58:00,1.8,-1.5,30.11,SE,127,0.0,3.0,86,0.00,,,0.00,meteohub,2013-12-18 04:58:00,